Weather in Cologne

Germany     50°55′50″N   6°56′18″E
temp.,
°C
wind,
m/s
gust,
m/s
humid.,
%
clouds,
%
prec.,
mm/h
press.,
hPa
HPBL,
m
22 april, thu
thu2223:00+8nne59608 0.0 1021661
02:00+5nne3664100 0.0 1023484
05:00+4nne2672100 0.0 1024451
08:00+4n2567100 0.0 1025530
11:00+8n3449100 0.0 10261165
14:00+12nnw353624 0.0 10251593
17:00+13nnw453660 0.0 10251761
20:00+11nnw35475 0.0 1025728
23 april, fri
fri2323:00+8n376235 0.0 1027335
02:00+5nne25721 0.0 1028231
05:00+4nne11804 0.0 102882
08:00+5nne12723 0.0 1030277
11:00+10nnw23455 0.0 1029955
14:00+14nnw33325 0.0 10281429
17:00+15n333045 0.0 10271653
20:00+12ne35456 0.0 1027441
24 april, sat
sat2423:00+8ne23615 0.0 102897
02:00+6ene25725 0.0 1028163
05:00+5ene127868 0.0 102776
08:00+6ene1271100 0.0 1027170
11:00+11n2246100 0.0 1027921
14:00+14n3430100 0.0 10251371
17:00+14nne4435100 0.0 10251434
20:00+11ne3551100 0.0 1025903
25 april, sun
sun2523:00+8ne3863100 0.0 1026460
02:00+6ne38720 0.0 1026350
05:00+4nne25760 0.0 1027189
08:00+4nne23610 0.0 1027260
11:00+11nne23280 0.0 1026975
14:00+15nne23225 0.0 10241542
17:00+16nne432994 0.0 10231792
20:00+12nne4746100 0.0 1022591
26 april, mon
mon2623:00+8ne385919 0.0 1023403
02:00+6ne377399 0.0 1022245
05:00+4nne25790 0.0 1021163
08:00+5nne24690 0.0 1020271
11:00+11nne33361 0.0 10191038
14:00+14n33245 0.0 10161555
17:00+15nne4325100 0.0 10141748
20:00+11ne4743100 0.0 1013564